Location: Kosice
(48.7167°N, 21.2500°E)
Time: 02:44:01
(UTC+01:00)

Daily predictions for brighter satellites

Satellite Brightness Start Highest point End
(mag) Time Altitude Azimuth Time Altitude Azimuth Time Altitude Azimuth
Cosmos 2082 Rocket 4.4 03:09:19 21° NE 03:09:19 21° NE 03:11:17 10° NE
USA 234 4.3 03:04:14 10° ESE 03:08:26 41° E 03:08:26 41° E
Cosmos 2360 Rocket 4.4 03:34:40 17° NNE 03:35:45 18° NE 03:39:31 10° ENE
SeaSat 1 4.2 03:33:29 10° NE 03:37:24 29° E 03:37:24 29° E
Cosmos 1980 Rocket 3.8 03:41:50 27° SE 03:41:50 27° SE 03:44:20 10° SE
COSMO-SKYMED 1 4.4 03:54:50 10° SE 03:57:39 29° E 03:57:39 29° E
Meteor 2-4 Rocket 4.0 04:08:22 58° SE 04:08:22 58° SE 04:12:55 10° SSE
ATLAS 5 CENTAUR R/B 4.0 04:09:57 19° N 04:10:17 20° NNE 04:14:29 10° ENE
USA 267 3.1 04:10:03 10° NE 04:16:37 85° SSE 04:17:37 67° SW
SL-16 R/B 2.7 04:17:16 46° NNE 04:18:30 55° ENE 04:24:04 10° SE
Nadezhda 4 Rocket 4.5 04:15:02 10° S 04:21:01 57° E 04:26:59 10° NNE
Meteor 1-11 Rocket 3.9 04:17:32 10° S 04:23:26 75° E 04:29:16 10° NNE
Cosmos 2322 Rocket 2.6 04:22:49 45° N 04:24:16 59° ENE 04:29:52 10° SE
Cosmos 44 Rocket 4.3 04:31:06 34° NNE 04:31:06 34° NNE 04:33:56 10° NNE
BREEZE-M DEB (TANK) 4.2 04:31:22 36° SSE 04:31:22 36° SSE 04:34:57 10° SE
Meteor 2-20 Rocket 4.4 04:37:04 10° S 04:43:10 81° E 04:49:17 10° NNE
SKYMED 2 3.5 04:42:19 10° SSE 04:46:16 73° S 04:46:16 73° S
Meteor 1-5 Rocket 4.1 04:42:57 10° S 04:48:22 79° E 04:53:42 10° NNE
Timation 2 Rocket 4.2 04:43:06 10° SSW 04:49:59 80° ESE 04:56:52 10° NNE
Cosmos 2082 Rocket 2.9 04:51:13 37° NNW 04:51:13 37° NNW 04:55:30 10° NNE
USA 234 3.3 04:47:18 10° SE 04:53:46 59° SW 04:55:47 42° W
Cosmos 1833 Rocket 3.5 04:55:57 33° NNW 04:55:57 33° NNW 05:00:00 10° NNE
Cosmos 44 4.4 04:58:14 26° N 04:58:14 26° N 05:00:48 10° NNE
Cosmos 1092 Rocket 4.0 04:55:41 10° S 05:01:48 80° E 05:07:59 10° N
EO 1 Del DPAF 3.8 05:05:11 10° S 05:08:04 43° SSW 05:08:04 43° SSW
PAYLOAD A 4.1 05:04:06 10° NNE 05:09:36 86° ESE 05:14:58 10° SSW
CZ-4B R/B 3.8 05:05:11 10° N 05:09:34 35° NW 05:09:34 35° NW
Okean 1-7 Rocket 3.8 05:06:49 15° N 05:10:37 74° E 05:15:09 10° SSE
Cosmos 2333 Rocket 4.2 05:09:13 10° N 05:13:44 23° NE 05:18:14 10° E
SeaSat 1 2.6 05:10:42 10° NNE 05:15:29 50° NW 05:17:13 34° WSW
Cosmos 1300 Rocket 3.5 05:11:49 10° SSW 05:16:04 54° WNW 05:20:19 10° N
Cosmos 2026 Rocket 4.4 05:09:57 10° S 05:16:08 65° E 05:22:27 10° NNE
Meteor 1-23 Rocket 4.3 05:14:17 28° NW 05:16:54 49° W 05:22:13 10° SSW
CZ-4C R/B 2.1 05:12:11 13° SW 05:16:59 90° ESE 05:23:12 10° NE
COSMOS 2428 4.1 05:12:09 11° NNW 05:17:10 35° NE 05:22:22 10° ESE
Meteor 1-4 Rocket 2.6 05:14:12 10° S 05:17:59 87° ESE 05:21:49 10° NNE
Cosmos 1025 Rocket 2.8 05:17:10 29° NNW 05:19:16 69° W 05:23:31 10° S
Cosmos 2360 Rocket 2.4 05:16:27 17° NNW 05:20:52 69° ENE 05:26:31 10° SE
Cosmos 1066 Rocket 4.2 05:15:32 10° N 05:20:55 76° ENE 05:26:19 10° SSE
ERBS 4.1 05:20:52 20° N 05:20:59 20° N 05:23:35 10° ENE
Cosmos 1980 Rocket 3.7 05:23:41 18° WSW 05:23:41 18° WSW 05:26:09 10° SSW
Meteor 2-11 Rocket 4.3 05:19:07 10° NNW 05:25:13 75° W 05:31:17 10° S
NOAA 6 4.0 05:20:46 10° N 05:25:48 57° WNW 05:30:49 10° SSW
deb Kosmos-1763 3.9 05:24:50 10° SSW 05:28:35 82° WNW 05:32:20 10° NNE
Cosmos 1500 3.0 05:25:39 10° SSW 05:29:30 78° W 05:33:22 10° N
Cosmos 2219 Rocket 3.8 05:25:15 10° NNW 05:30:13 30° NE 05:35:10 10° ESE
CZ-2C R/B 2.3 05:25:37 10° NNE 05:30:32 86° WNW 05:35:16 10° SSW
COSMO-SKYMED 1 3.4 05:31:09 10° SSW 05:34:52 29° W 05:34:52 29° W
CZ-4 R/B 3.5 05:33:35 10° NNE 05:37:21 31° E 05:41:07 10° SSE
Okean-O 2.9 05:33:29 10° N 05:37:42 43° WNW 05:41:53 10° SW
Cosmos 1271 Rocket 4.5 05:36:40 10° SSE 05:40:06 34° E 05:43:31 10° NNE
Cosmos 1184 Rocket 3.2 05:44:44 31° NW 05:45:48 42° W 05:48:57 10° SSW
Cosmos 2237 Rocket 4.0 05:41:31 10° N 05:46:05 24° NE 05:50:36 10° E
Cosmos 773 Rocket 4.2 05:43:35 10° SW 05:48:32 47° WNW 05:53:33 10° NNE
Cosmos 1624 Rocket 4.3 05:44:56 10° NNW 05:50:18 72° ENE 05:55:37 10° SSE
IDEFIX/ARIANE 42P 2.8 05:46:03 10° N 05:51:02 47° WNW 05:55:59 10° SW
Okean 1 Rocket 3.5 05:47:20 10° SW 05:51:26 38° WNW 05:55:36 10° N
BREEZE-M DEB (TANK) 3.4 05:49:51 12° SW 05:51:58 47° SSE 05:56:50 10° ENE
MSX 3.8 05:47:46 10° N 05:53:31 71° WNW 05:59:13 10° SSW
SJ-12 3.8 05:51:27 10° N 05:55:29 63° WNW 05:59:30 10° SSW
ATLAS 5 CENTAUR R/B 3.2 05:51:30 12° NNW 05:56:25 42° NE 06:02:22 10° ESE
Okean 2 4.3 05:55:12 21° NW 05:56:50 27° W 06:00:18 10° SSW
Celestis-02/Orion 38 4.5 05:52:55 10° SSE 05:57:58 76° WSW 06:03:04 10° NNW
Cosmos 1680 Rocket 3.4 05:53:05 10° SSW 05:58:18 85° WNW 06:03:35 10° NNE
USA 267 3.5 05:53:09 10° ENE 05:59:25 51° NNW 06:04:58 13° W
Meteor 1-12 Rocket 4.3 05:55:06 10° S 06:00:48 88° E 06:06:30 10° NNE
Cosmos 1666 2.9 05:57:58 10° S 06:01:47 75° E 06:05:36 10° NNE
SL-16 R/B 3.1 05:59:11 17° WNW 06:02:17 28° WSW 06:06:59 10° SSW
SJ-7 4.3 05:59:31 10° NNE 06:03:35 87° W 06:07:40 10° SSW
Cosmos 1975 2.8 06:01:22 10° SSW 06:05:17 56° WNW 06:09:14 10° N
COSMOS 2441 4.4 06:01:01 10° N 06:05:45 54° WNW 06:10:26 10° SSW
AQUARIUS 4.3 06:01:26 10° NNE 06:05:58 78° ESE 06:10:28 10° S
Cosmos 1626 Rocket 4.2 06:03:15 10° N 06:07:31 56° ENE 06:11:47 10° SSE
Cosmos 1892 Rocket 3.7 06:03:28 10° NNW 06:07:46 54° W 06:12:01 10° S
Cosmos 2322 Rocket 3.2 06:04:40 16° WNW 06:07:55 26° WSW 06:12:30 10° SSW
YAOGAN 1 3.8 06:03:45 10° NNE 06:07:56 45° E 06:12:05 10° S
Cosmos 389 Rocket 2.4 06:06:33 10° SSW 06:10:10 81° WNW 06:13:48 10° N
Cosmos 1371 Rocket 4.0 06:06:57 10° NNW 06:12:10 67° WSW 06:17:17 10° S
CSL-04 Rocket 3.8 06:07:46 10° NNE 06:13:23 89° WNW 06:18:56 10° SSW
Cosmos 2285 Rocket 4.0 06:07:36 10° SSW 06:13:54 69° WNW 06:20:13 10° NNE
BREEZE-M DEB (TANK) 2.7 06:12:16 13° WNW 06:18:23 55° SSW 06:20:45 10° SE
Cosmos 2237 4.3 06:12:56 10° NNW 06:18:37 67° WSW 06:24:14 10° SSE
Thor Agena Rocket 4.1 06:14:26 10° SSW 06:19:06 37° W 06:23:50 10° NNW
ERS-2 4.2 06:20:13 10° NNE 06:23:33 31° E 06:26:52 10° SSE
Cosmos 1238 Rocket 4.1 06:17:11 10° N 06:23:55 85° E 06:29:58 10° S
SMAP 3.0 06:19:19 10° N 06:23:59 72° WNW 06:28:37 10° SSW
ATLAS CENTAUR R/B 2.7 06:20:35 10° S 06:24:03 39° ESE 06:27:30 10° NE
Cosmos 923 Rocket 4.4 06:25:10 10° SW 06:30:05 39° WNW 06:35:00 10° N
S3M 4.2 06:25:16 10° NNW 06:31:13 52° W 06:37:13 10° SSW
Cosmos 2322 4.1 06:26:07 10° NW 06:31:33 47° WSW 06:36:55 10° S
Cosmos 2082 Rocket 4.0 06:33:35 10° NW 06:35:53 12° NNW 06:38:09 10° N
Cosmos 1602 Rocket 3.5 06:31:35 10° N 06:35:56 83° W 06:40:15 10° S
ALOS 3.3 06:32:45 10° NNE 06:37:20 51° E 06:41:53 10° S
Cosmos 1833 4.2 06:34:45 10° SW 06:40:16 62° WNW 06:45:52 10° NNE
SL-16 R/B 3.9 06:36:37 10° NNW 06:41:24 26° NE 06:46:09 10° ESE
Cosmos 1484 Rocket 3.4 06:37:55 10° N 06:41:28 33° WNW 06:44:56 10° SW
Cosmos 1842 3.5 06:39:13 10° NNW 06:43:05 53° W 06:46:56 10° S
APEX 3.9 06:41:03 10° WSW 06:44:30 37° NW 06:48:50 10° NNE
Cosmos 2112 Rocket 4.4 06:41:31 10° SW 06:46:26 42° WNW 06:51:25 10° NNE
